Regional Weather Roundup
Issued by NWS Huntsville, AL

Home | Current Version | Previous Version | Text Only | Print | Product List | Glossary On
Versions: 1 2 3 4 5 6 7 8 9 10 11 12 13 14 15 16 17 18 19 20 21 22 23 24 25 26 27 28
000
ASUS44 KHUN 272210
RWRHUN

WEATHER ROUNDUP FOR THE TENNESSEE VALLEY
NATIONAL WEATHER SERVICE HUNTSVILLE AL
500 PM CDT FRI MAY 27 2016

ALZ001>004-272300-
NORTHWEST ALABAMA

CITY           SKY/WX    TMP DP  RH WIND       PRES   REMARKS
SHOALS AIRPORT CLOUDY    84  62  47 S12       29.95F
$$

ALZ005>007-016-272300-
NORTH CENTRAL ALABAMA

CITY           SKY/WX    TMP DP  RH WIND       PRES   REMARKS
DECATUR AP     CLOUDY    82  64  54 S12       29.96F
HUNTSVILLE AP  CLOUDY    86  63  45 SW8       29.95F
HUN NWS/UAH      N/A     86  61  43 S6          N/A
MERIDIANVILLE  CLOUDY    88  52  29 S10       29.95F
REDSTONE ARSN  CLOUDY    84  65  53 SW7       29.94F
VINEMONT AP    FAIR      81  66  60 SW3       30.00S
$$

ALZ008>010-272300-
NORTHEAST ALABAMA

CITY           SKY/WX    TMP DP  RH WIND       PRES   REMARKS
ALBERTVILLE    MOSUNNY   82  70  65 S12       29.97F
FORT PAYNE     SUNNY     84  61  45 SE8       29.98F
SCOTTSBORO AP  MOSUNNY   84  64  51 S8        29.96F
SCOTTSBORO HCN   N/A     88 N/A N/A MISG        N/A
VALLEY HEAD      N/A     82 N/A N/A MISG        N/A
$$

TNZ076-096-097-272300-
SOUTHEASTERN MIDDLE TENNESSEE

CITY           SKY/WX    TMP DP  RH WIND       PRES   REMARKS
TULLAHOMA      SUNNY     86  61  42 S10       29.98F
WINCHESTER     MOSUNNY   88  61  40 S10       29.97F
$$

...SURROUNDING SITES...

CITY           SKY/WX    TMP DP  RH WIND       PRES   REMARKS
ATLANTA        PTSUNNY   84  59  42 SE15G21   30.04F
ANNISTON       MOSUNNY   86  61  42 S8        29.98F
BIRMINGHAM     CLOUDY    87  61  40 S7        29.98F
CHATTANOOGA    PTSUNNY   86  62  44 SE12      29.99F
DALTON         MOSUNNY   86  64  48 SE14      30.00F
GADSDEN        MOSUNNY   87  66  49 S8        29.96F
GOLDEN TRNGL   NOT AVBL
HALEYVILLE     FAIR      83  65  54 S12       29.98F
JACKSON TN     MOSUNNY   80  64  58 S9G17     29.90F
MEMPHIS        CLOUDY    82  67  60 S15       29.86F
NASHVILLE      CLOUDY    85  62  46 SW7       29.94F
OXFORD MS      FAIR      81  64  57 S8        29.91F
ROME           MOSUNNY   85  63  47 S10       29.99F
SAVANNAH       SUNNY     82  66  57 S7        29.92F
TUPELO         PTSUNNY   85  60  42 SE12G23   29.91F
TUSCALOOSA     PTSUNNY   86  64  47 S12       29.94F
$$

...GULF COAST WEATHER...

CITY           SKY/WX    TMP DP  RH WIND       PRES   REMARKS
GULFPORT       MOSUNNY   83  70  64 SE20      29.93S
PASCAGOULA     PTSUNNY   82  69  64 SE13      29.95S
MOBILE         PTSUNNY   83  64  52 SE13      29.95S
GULF SHORES    PTCLDY    80  72  75 SE13G23   29.95F
DESTIN         SUNNY     83  70  64 S12G17    29.96F
PANAMA CITY    SUNNY     82  69  65 S15       29.96F
APPALACHICOLA  SUNNY     81  69  67 SE6       29.98F
$$





USA.gov is the U.S. government's official web portal to all federal, state and local government web resources and services.